Location: Unspecified
(43.4354°N, 0.0000°E)
Time: 21:54:02
(UTC+00:00)

S-56A Canister/Altair - Pass Details

Date: 03 July 2019
Orbit: 632 x 2500 km, 38.9° (Epoch: 17 July)

Event Time Altitude Azimuth Distance (km) Brightness Sun altitude
Rises 13:34:34 0° 252° (WSW) 6,093 12.5 62.3°
Reaches altitude 10° 13:38:49 10° 250° (WSW) 4,961 12.2 61.7°
Maximum altitude 13:52:21 68° 172° (S) 1,993 11.0 59.7°
Drops below altitude 10° 14:01:39 10° 93° (E) 3,518 10.7 58.3°
Sets 14:04:09 0° 90° (E) 4,274 11.1 57.9°
